Location: Franzen
(48.6167°N, 15.3833°E)
Time: 14:34:10
(UTC+00:00)

Transit 2A Rocket - Pass Details

Date: 10 August 2021
Orbit: 586 x 916 km, 66.7° (Epoch: 23 September)

Event Time Altitude Azimuth Distance (km) Brightness Sun altitude
Rises 19:30:28 0° 322° (NW) 3,293 10.1 -10.5°
Reaches altitude 10° 19:32:49 10° 320° (NW) 2,408 9.0 -10.8°
Maximum altitude 19:38:22 68° 239° (WSW) 926 5.5 -11.5°
Enters shadow 19:43:49 12° 158° (SSE) 2,388 7.0 -12.2°
